Location: Milevsko
(49.4500°N, 14.3670°E)
Time: 20:40:49
(UTC+02:00)

ISS - Pass Details

Date: 14 July 2018
Orbit: 402 x 408 km, 51.6° (Epoch: 17 July)

Event Time Altitude Azimuth Distance (km) Brightness Sun altitude
Exits shadow 02:40:23 22° 262° (W) 947 -2.3 -16.0°
Maximum altitude 02:42:22 76° 346° (NNW) 425 -3.7 -15.8°
Drops below altitude 10° 02:45:40 10° 72° (ENE) 1,472 -0.4 -15.6°
Sets 02:47:46 0° 74° (ENE) 2,334 0.6 -15.5°
